Theta_e
316 310 308 311 313 314 315 317 317 315 314 318 318 319 324 329 325 319 318 318 318 319 321 320 320 319 316 314 312 313 315 312 312 313 314 315 315 315 315 314 315 316 315 316 317 316 316 316 315 316 315 313 313 313 313 312 312 314 314 314 317 323 324 321 319 321 322 321 321 321 319 319 319 319 321 320 317 317 316 318 325 327 329 331 325 325 338
318 311 308 310 312 313 315 317 317 315 315 318 319 322 326 326 324 322 319 316 317 319 318 318 320 321 318 315 312 311 311 312 313 313 314 314 314 315 316 314 314 315 315 316 316 315 316 316 316 317 315 315 317 316 314 315 318 319 318 317 317 321 324 322 318 318 318 318 319 319 319 320 320 321 323 322 323 321 320 327 330 326 330 331 321 324 339
320 313 308 310 312 313 315 317 317 316 316 317 319 323 324 321 322 323 319 315 315 316 315 315 318 320 320 316 313 312 311 311 312 313 314 313 314 316 316 314 314 315 315 316 317 317 316 316 317 317 315 316 318 317 316 317 320 324 326 324 322 322 326 326 323 320 318 318 318 317 318 319 319 322 324 326 329 326 323 327 324 320 333 335 322 327 345
321 315 309 309 312 313 314 316 317 316 316 317 319 320 321 320 322 323 320 316 315 313 311 313 316 319 322 318 312 312 313 312 311 312 313 313 313 315 315 314 315 316 317 319 319 319 317 318 320 319 318 318 316 317 319 315 320 333 331 323 324 327 327 327 329 326 320 319 319 318 319 319 318 323 328 329 331 330 327 325 320 322 333 334 330 339 348
321 317 310 308 311 312 313 316 317 316 316 317 319 319 320 323 324 324 323 318 316 315 314 316 317 317 319 318 313 313 314 313 313 313 314 314 314 314 314 314 316 318 320 320 320 320 320 319 320 320 319 319 317 318 319 315 323 337 328 317 323 327 322 323 326 326 323 323 322 320 319 318 319 326 332 333 334 334 329 324 325 330 327 325 337 349 347
321 319 313 308 310 312 313 315 316 316 316 317 319 321 321 322 321 321 322 320 317 318 319 321 319 316 317 318 315 314 315 314 315 314 314 315 315 316 316 314 313 316 319 320 320 322 322 318 319 320 319 321 319 317 318 315 319 327 319 315 322 323 319 321 321 322 324 324 322 321 320 319 322 330 334 334 335 338 337 333 335 338 328 325 341 352 348
320 321 315 309 309 311 312 314 315 316 316 317 320 323 320 320 322 320 320 321 320 320 320 321 319 318 323 323 316 314 315 313 312 312 314 317 315 316 318 315 312 314 319 324 323 323 321 317 318 320 319 320 320 318 317 315 315 318 317 317 320 318 319 323 321 320 322 322 322 323 321 319 323 328 332 334 335 338 341 341 340 342 340 338 345 350 349
319 321 318 311 308 310 312 314 315 315 316 318 321 322 320 320 322 323 324 325 325 322 319 320 320 318 322 322 315 313 315 313 312 311 314 318 318 316 316 314 313 314 317 321 320 318 318 316 315 318 318 318 319 318 317 315 315 317 318 319 320 318 319 322 321 319 320 320 323 325 323 322 323 326 330 334 336 338 340 342 340 342 345 345 346 349 350
318 320 320 313 308 309 311 313 315 316 316 319 320 320 320 320 319 321 327 329 328 325 319 319 322 317 317 319 317 315 315 313 314 313 311 315 318 317 315 314 316 316 317 316 314 314 317 315 313 315 315 314 314 316 316 315 315 318 319 320 322 320 318 319 320 319 318 319 322 325 326 322 320 325 332 335 336 337 338 340 340 340 344 346 345 346 348
318 319 321 315 308 309 310 311 315 317 317 319 321 321 321 322 320 320 326 327 326 325 320 316 319 316 316 321 321 318 315 313 314 316 313 313 314 314 315 316 317 318 318 316 313 312 314 313 312 312 311 311 311 313 315 315 316 319 320 319 322 322 319 318 319 319 317 319 322 326 327 324 321 325 332 336 338 337 337 338 339 339 341 343 343 344 347
318 318 321 317 309 308 310 311 313 317 319 320 321 322 321 323 323 322 325 324 322 321 320 318 320 318 316 318 317 315 315 315 318 320 316 313 313 312 315 319 320 319 317 315 312 312 312 310 310 311 311 312 312 313 316 316 317 319 319 318 321 323 321 320 319 318 318 321 323 325 328 327 326 328 332 336 338 338 339 339 337 338 340 340 341 344 345
317 318 320 318 310 307 310 310 311 314 319 321 321 321 321 321 322 323 327 326 322 320 319 317 319 317 314 314 314 314 315 316 319 321 317 314 313 311 313 319 320 317 315 313 312 312 312 311 313 314 313 313 314 315 315 316 316 317 316 317 320 322 323 323 320 318 320 323 323 325 327 327 325 326 330 334 334 333 336 338 337 336 338 339 342 344 343
317 317 320 319 311 307 309 310 310 312 317 321 322 321 321 320 321 323 328 330 325 323 320 315 314 314 313 314 315 314 314 314 316 317 316 315 314 313 312 315 316 314 313 314 316 317 316 317 318 318 316 317 317 316 316 316 316 316 317 317 318 319 321 324 322 319 320 322 321 324 325 323 321 321 324 327 328 327 330 335 336 336 336 340 344 343 340
316 317 320 320 312 306 308 310 310 311 314 319 323 322 320 320 322 323 326 329 326 323 321 317 314 315 316 317 316 314 314 316 317 317 315 314 314 314 313 313 313 313 312 315 320 322 319 318 318 316 316 318 316 315 318 318 317 317 318 319 319 320 321 321 321 320 320 320 320 321 322 322 321 320 321 322 323 323 326 333 336 335 335 339 341 338 335
317 317 319 320 313 306 307 309 310 310 313 318 323 322 320 319 321 322 323 327 327 322 318 317 318 320 320 319 317 316 315 317 318 317 316 317 316 313 312 313 312 312 313 316 322 322 318 318 318 316 315 316 314 315 319 319 316 316 317 317 318 320 321 320 321 321 319 319 321 321 321 322 322 320 320 320 319 319 324 332 335 334 335 337 337 334 332
317 317 318 320 315 308 306 309 310 309 311 318 322 323 320 319 320 321 321 325 327 321 317 317 320 321 320 317 317 319 320 320 319 318 318 320 319 315 313 313 313 315 317 321 324 323 320 319 319 318 317 317 318 318 319 318 317 315 317 320 320 320 321 320 320 321 319 318 320 321 321 322 322 320 321 320 319 320 324 327 330 333 335 334 335 333 331
316 317 317 319 318 311 306 307 310 309 310 316 322 322 321 319 319 319 320 323 323 319 318 318 317 319 320 318 318 321 322 321 320 320 319 319 319 319 317 315 315 316 319 324 326 323 321 319 317 318 318 318 319 319 317 318 318 315 317 322 323 322 321 318 316 319 322 320 318 319 321 322 323 323 322 320 319 321 324 323 325 332 335 333 333 333 331
316 316 316 318 319 316 309 306 309 310 309 313 319 321 321 320 318 317 319 323 323 319 317 316 316 317 319 319 320 319 317 319 322 322 321 320 320 320 319 317 317 316 318 326 328 322 320 320 317 318 320 318 317 316 315 317 317 316 318 321 322 322 321 318 316 317 319 319 318 319 321 322 323 323 322 321 320 322 323 323 323 329 334 333 333 332 331
317 317 316 317 320 318 311 305 308 310 309 311 314 319 321 321 318 317 318 321 323 319 315 315 316 317 316 316 318 317 314 319 326 324 320 320 320 318 315 316 318 318 320 326 325 320 320 321 317 317 319 319 316 314 315 316 316 316 317 319 319 320 321 319 317 316 316 317 318 318 319 320 321 322 322 322 322 323 324 323 322 326 331 333 333 332 331
317 318 317 317 320 318 311 305 307 309 310 310 312 315 320 320 318 316 317 320 323 322 316 314 316 318 317 316 317 318 317 321 326 326 322 321 319 317 316 317 319 319 321 324 322 319 320 321 318 317 319 319 317 315 315 317 317 317 317 317 318 319 319 319 318 317 316 316 315 317 320 321 321 322 324 324 323 323 323 322 322 326 330 331 332 331 330
316 317 317 317 319 319 312 305 306 309 309 310 311 312 316 318 317 316 316 318 321 321 317 315 316 318 319 318 319 320 319 320 323 324 323 321 318 318 320 323 323 321 321 321 320 320 320 321 320 319 319 318 317 317 318 320 319 317 316 316 317 318 318 319 320 319 318 317 316 318 321 322 320 322 324 324 322 321 321 321 322 327 330 330 330 330 329
315 316 316 316 318 319 314 306 305 308 309 309 310 310 314 316 316 316 317 318 319 319 316 316 317 318 319 320 319 319 320 320 320 320 322 322 319 317 321 326 325 322 320 321 321 320 320 320 320 320 320 319 318 318 319 319 319 319 316 316 317 319 319 319 320 319 319 320 320 321 321 320 320 320 321 320 319 318 319 319 321 326 329 329 329 328 327
315 315 316 316 318 319 315 306 305 308 309 309 310 311 314 315 314 316 318 318 320 320 316 314 317 318 319 319 318 318 319 319 318 317 319 322 321 318 319 322 322 319 319 322 323 323 323 322 320 320 321 320 319 319 318 317 319 321 319 316 317 318 318 318 319 319 319 319 319 321 321 321 320 320 319 318 318 317 318 319 321 323 326 328 328 326 326
314 314 315 316 318 319 315 307 305 307 309 309 310 311 313 315 315 317 318 318 321 322 316 315 320 320 319 319 318 316 317 317 317 316 315 318 321 320 319 319 318 319 322 323 321 321 323 321 318 318 321 320 319 320 320 319 320 321 320 319 319 318 317 319 320 320 318 319 321 322 321 320 320 320 320 319 318 317 317 319 319 319 322 326 326 324 324
314 315 316 316 317 319 315 307 305 307 309 309 310 312 315 316 316 318 318 317 322 325 321 320 322 319 318 320 319 318 317 317 317 316 314 315 316 317 319 319 318 320 324 322 319 320 323 321 319 319 320 319 319 320 320 320 319 320 321 320 321 320 319 321 322 321 319 320 321 321 320 319 319 320 321 320 319 319 318 317 318 319 321 323 324 323 323
313 315 315 316 317 318 314 308 305 307 308 309 310 314 317 317 317 319 319 318 320 323 322 322 322 319 318 320 319 319 319 318 317 316 315 315 316 317 320 320 319 319 321 320 320 322 325 322 321 321 320 319 319 320 320 319 319 320 321 321 320 320 321 321 322 322 321 321 321 320 321 321 320 320 320 320 320 321 319 317 317 319 320 321 322 323 323
313 314 315 316 317 318 315 309 306 306 308 309 310 314 319 319 317 319 320 320 320 321 321 322 322 318 317 318 319 319 319 318 317 316 315 316 318 318 319 322 322 322 322 321 320 321 323 322 321 320 320 319 320 320 320 319 320 321 322 321 320 320 321 321 321 321 321 321 321 322 323 322 321 320 320 320 320 321 321 319 317 318 319 321 322 322 322
313 313 315 316 317 318 315 310 306 307 308 309 310 314 318 319 318 318 319 319 320 321 321 322 321 317 317 318 319 319 318 316 316 315 315 318 319 319 319 322 323 322 322 322 321 322 322 321 320 320 321 320 321 321 320 319 320 322 322 322 321 322 322 321 321 321 322 321 321 321 322 322 321 320 319 320 320 320 321 321 319 317 318 319 320 320 321
312 313 315 316 317 318 315 311 307 307 308 309 313 316 318 319 318 318 318 318 319 321 321 320 318 317 318 319 320 319 317 315 314 315 317 318 319 319 320 323 324 322 322 323 324 324 323 321 320 321 321 321 321 322 321 321 322 323 322 322 321 321 321 321 321 322 323 322 321 321 321 322 321 319 319 320 321 321 320 321 320 320 319 319 319 318 319
312 314 315 316 317 317 315 311 308 307 308 312 317 320 322 321 318 317 317 317 318 319 320 319 318 318 318 319 321 322 320 317 315 317 318 319 321 321 321 323 324 322 321 323 323 323 323 322 321 321 320 319 321 322 322 321 322 322 321 321 321 321 321 320 321 321 323 322 321 320 321 321 320 320 319 320 321 322 321 320 321 322 322 321 320 319 319
313 315 316 316 317 317 315 311 308 307 309 314 319 322 324 324 320 318 317 316 317 318 319 319 319 319 319 320 321 322 322 322 322 322 322 322 322 321 320 322 323 322 323 325 324 321 322 324 323 322 321 320 321 322 321 321 322 321 321 322 322 322 322 320 319 319 320 320 320 319 319 319 319 320 320 319 320 321 321 321 321 321 322 322 321 320 320
315 316 316 316 317 317 314 309 307 308 310 314 318 319 320 320 320 318 316 316 317 319 320 319 319 320 322 322 319 319 321 322 322 323 324 323 322 322 321 322 323 323 323 325 324 321 321 322 323 323 322 320 321 321 321 321 322 322 322 323 322 320 320 320 319 318 318 319 319 319 320 319 319 320 319 318 319 319 320 320 320 320 320 321 320 320 320
315 315 315 316 317 315 311 308 308 309 309 311 314 314 314 316 317 316 315 317 319 318 318 320 322 321 320 319 319 319 321 321 320 322 324 323 322 322 322 322 322 322 322 323 323 321 319 319 322 323 321 319 320 321 322 322 323 322 322 322 321 319 319 319 318 318 318 318 319 320 320 320 319 318 318 317 317 317 318 318 318 319 320 320 320 320 321
315 314 315 316 315 312 309 308 310 311 310 311 314 314 314 316 316 315 316 318 319 318 318 320 323 321 319 319 321 320 320 321 321 322 324 323 322 322 323 322 322 323 322 321 321 321 320 320 322 323 321 320 320 322 323 323 323 321 320 320 318 318 318 318 318 318 318 317 318 318 319 319 318 317 316 316 315 315 316 316 316 317 317 317 318 319 320
314 314 316 316 313 309 308 309 311 313 314 316 317 316 316 316 316 316 317 317 318 320 319 318 319 322 321 322 324 322 319 319 320 321 322 322 321 321 322 323 324 323 320 319 319 322 322 321 321 323 323 321 322 323 324 324 323 321 320 320 318 317 318 319 319 318 317 316 317 317 317 317 316 315 315 314 314 315 316 315 315 316 316 316 317 318 318
314 315 315 313 310 308 310 312 313 314 318 319 317 316 317 317 316 316 317 316 317 321 321 318 319 322 323 323 323 321 319 319 319 319 320 321 321 320 321 322 324 322 318 318 320 322 321 319 320 322 322 321 323 325 326 326 325 323 322 321 319 318 319 320 319 318 316 315 316 317 316 315 315 315 314 313 313 314 315 314 314 315 315 316 317 318 318
314 314 311 309 310 312 314 314 313 315 319 319 317 316 317 317 316 317 318 317 318 318 318 319 321 320 320 322 322 321 319 319 320 320 320 321 322 321 319 321 322 321 319 321 322 322 319 318 319 321 322 321 323 325 325 326 327 325 323 322 320 318 319 319 318 317 317 315 315 316 315 314 314 314 314 313 313 314 314 313 313 314 315 315 316 317 317
314 312 309 310 314 318 319 317 316 317 318 317 316 317 317 316 318 320 319 319 319 316 315 318 321 320 319 321 322 320 319 319 320 321 321 322 321 321 320 320 321 320 321 321 319 318 319 319 318 320 322 322 323 324 323 321 321 321 321 321 319 318 318 317 317 317 317 316 315 315 315 314 314 314 314 313 314 314 315 314 315 315 315 315 316 316 317
312 310 309 313 317 320 320 318 316 316 317 316 317 319 319 317 319 322 320 318 319 317 314 316 319 320 321 323 323 320 319 319 320 321 322 321 320 321 321 321 320 319 320 320 317 317 321 322 320 320 321 323 324 323 320 318 317 317 317 318 319 318 318 317 317 317 317 316 315 315 314 314 315 315 314 314 315 315 316 316 316 315 315 316 316 316 316
311 311 313 316 318 317 317 316 316 316 318 318 318 319 319 319 320 320 319 320 322 319 317 317 318 318 319 323 323 321 319 319 320 322 322 321 318 318 320 321 319 319 320 320 318 317 319 320 319 318 321 326 326 320 315 315 316 316 315 316 318 318 317 317 317 317 316 316 316 315 315 315 315 315 315 315 315 315 315 315 315 316 316 316 316 316 316
310 312 316 318 317 316 315 315 316 317 319 320 320 320 320 320 319 318 319 323 324 320 317 318 320 319 319 320 322 322 320 318 318 320 322 321 317 317 319 319 317 317 320 320 317 316 318 320 319 318 321 326 323 315 312 314 316 315 314 315 317 317 316 316 316 315 315 316 316 315 314 314 314 314 314 315 315 315 315 315 315 315 315 315 316 316 316
311 314 316 316 316 316 316 316 317 318 319 320 321 320 318 318 319 320 321 323 324 321 320 320 321 322 321 319 320 321 321 319 318 320 321 320 317 317 319 318 316 318 319 317 316 317 319 318 317 319 323 324 318 312 313 315 315 313 313 315 315 314 314 314 314 313 313 313 313 313 313 312 312 313 313 313 313 314 314 314 314 314 314 315 315 315 315
314 314 315 316 316 317 317 317 317 319 319 319 319 319 317 317 319 322 323 322 321 321 322 321 320 320 320 320 319 320 319 319 319 320 320 319 317 317 318 318 318 318 317 316 316 319 319 317 317 320 322 319 314 313 314 314 312 312 312 312 312 312 312 312 312 312 311 311 311 311 311 311 311 311 311 311 311 312 312 313 313 314 314 314 315 315 315
314 313 315 318 318 317 317 317 316 317 319 318 317 317 318 318 320 322 324 323 322 322 322 321 321 322 322 320 320 321 320 319 319 320 319 318 318 318 320 319 318 316 315 316 317 318 317 316 317 319 319 315 313 313 312 311 311 311 311 311 311 311 311 311 311 311 311 311 310 310 310 310 310 310 310 310 310 311 312 312 312 312 313 314 315 315 314
316 317 319 322 320 317 316 316 316 318 319 317 316 316 317 320 323 323 322 322 322 322 321 321 322 323 322 320 320 320 320 319 319 320 320 318 318 319 319 318 316 315 315 316 317 316 314 315 317 320 318 315 313 312 311 311 311 311 310 310 310 311 311 311 311 311 311 310 310 309 309 310 310 310 310 310 310 311 311 311 311 312 312 314 315 314 313
317 318 319 323 324 318 313 313 317 319 319 317 316 316 317 320 323 322 319 318 321 322 322 321 322 323 321 319 319 320 320 320 320 320 318 318 320 318 316 315 316 316 316 316 316 315 315 316 318 319 317 314 312 311 310 310 310 310 310 310 310 310 310 310 310 309 309 308 308 308 308 308 309 309 310 310 310 310 310 310 310 310 311 313 314 314 313
318 316 316 320 321 316 312 312 315 317 316 316 316 316 316 317 319 318 317 318 320 322 321 320 321 321 320 319 319 319 319 320 321 320 317 318 319 316 313 314 317 317 316 316 315 315 316 316 317 315 313 312 311 310 309 309 309 309 309 309 309 309 309 309 308 308 308 307 307 307 307 308 308 309 309 309 310 310 309 309 309 310 311 313 313 313 312
319 316 315 318 318 315 314 314 314 313 313 314 314 313 314 315 317 319 319 318 319 321 322 321 321 321 320 319 320 320 319 319 321 319 317 317 317 315 313 315 317 316 315 314 315 316 317 316 314 311 310 311 310 309 309 309 308 308 309 309 308 308 309 309 308 307 307 307 307 307 307 307 308 308 309 309 310 310 310 309 309 310 311 312 312 312 311
315 314 315 317 316 314 314 314 313 314 316 315 313 313 315 317 318 319 320 318 319 321 321 321 322 323 320 318 318 319 319 319 320 317 315 316 317 316 315 316 316 315 314 314 315 315 315 313 310 310 310 310 309 309 309 309 309 308 308 308 308 308 308 308 307 307 307 306 307 307 307 307 307 308 308 308 309 309 309 309 309 310 311 311 311 311 310
313 314 317 317 316 314 313 314 315 317 317 316 315 316 318 319 320 320 320 320 320 320 319 319 321 321 317 315 316 317 317 317 317 316 316 318 318 316 314 315 316 314 314 315 316 314 312 309 309 311 310 309 309 309 309 309 309 309 308 308 308 308 308 307 307 307 307 307 307 307 307 307 307 307 308 308 308 308 308 308 309 309 309 309 310 310 310
312 313 316 317 316 315 314 314 315 316 316 315 316 317 317 318 320 321 320 320 321 321 321 321 321 318 315 316 318 317 315 315 315 315 316 317 315 314 314 315 315 315 316 315 313 310 310 310 310 311 310 309 309 309 309 309 309 309 308 308 308 308 307 307 307 307 307 307 306 306 307 307 307 307 307 307 307 308 308 308 308 307 307 307 308 309 308
313 314 315 314 313 314 313 313 315 316 316 316 315 315 315 316 319 321 320 320 322 323 323 321 319 319 319 319 318 315 313 313 313 313 314 314 312 313 315 317 316 316 315 314 310 308 309 311 311 310 310 309 309 309 309 309 309 308 308 308 308 308 307 307 307 307 306 306 306 306 307 307 307 307 307 307 307 308 309 308 307 306 306 306 305 305 305
Wind_Speed
22 22 23 22 23 26 28 30 31 31 28 23 18 10 2 1 1 1 5 1 3 1 2 1 1 1 1 1 1 2 2 1 3 4 4 3 2 2 2 1 1 1 1 0 1 2 2 2 2 1 1 1 1 4 5 2 2 0 1 0 1 1 0 1 2 2 1 1 2 4 3 2 3 6 7 4 3 3 3 2 2 5 4 2 3 3 1
22 22 22 22 22 24 27 29 30 29 26 23 16 5 1 1 1 1 6 2 3 1 1 0 1 1 1 1 1 1 2 2 3 4 4 3 2 2 2 1 1 2 1 2 2 1 0 1 2 1 1 1 1 3 5 3 1 1 2 1 1 0 0 1 1 0 2 2 3 3 3 4 3 5 7 6 6 3 2 0 0 4 3 2 5 4 2
22 22 22 22 21 23 26 28 29 27 24 20 13 2 1 1 1 1 5 4 2 1 1 0 0 1 1 2 2 1 1 2 2 2 3 3 2 1 1 1 1 1 1 2 3 3 1 2 1 1 0 1 1 2 5 5 2 2 1 2 2 0 1 1 1 1 1 1 2 1 3 4 3 5 9 9 8 4 2 1 2 4 1 2 5 2 3
22 21 22 22 21 22 24 26 28 26 22 18 11 2 1 1 1 0 2 4 4 2 1 1 1 2 1 2 2 1 1 0 1 1 2 3 2 2 2 2 1 1 2 2 3 4 4 2 1 1 1 1 1 3 4 4 4 5 3 2 1 1 2 1 1 2 4 3 2 2 3 2 4 7 10 10 9 4 2 2 3 3 4 3 3 3 7
21 21 22 22 20 21 22 24 27 26 21 17 9 2 1 1 1 1 1 1 2 1 1 2 1 1 1 1 1 1 1 0 1 1 2 2 2 2 3 3 1 0 1 2 3 4 4 3 2 1 1 2 2 3 3 3 7 8 5 3 1 1 2 3 2 1 4 5 4 2 3 3 6 8 10 11 10 5 1 3 2 1 4 4 3 7 10
21 20 21 22 20 20 21 23 25 24 20 15 8 1 1 1 1 0 1 0 0 1 1 2 2 2 0 1 1 1 2 2 2 1 1 2 2 1 2 5 5 1 1 2 2 2 2 3 2 1 1 1 2 2 1 2 7 6 4 3 2 1 1 2 2 1 1 3 4 2 2 3 4 8 11 12 10 7 4 3 5 4 4 2 5 11 9
21 20 21 22 20 20 20 21 23 23 18 13 8 2 0 1 2 1 1 0 1 0 2 1 2 2 1 1 1 1 2 3 1 1 1 2 4 3 2 4 6 2 0 2 2 0 1 2 1 1 1 1 2 2 1 2 4 4 3 4 2 1 0 2 1 1 1 2 1 2 1 0 2 8 12 12 9 8 6 5 7 6 6 4 5 10 5
20 20 20 21 20 19 20 20 22 22 17 11 8 4 2 1 1 0 1 1 1 1 1 0 2 1 1 1 1 1 1 2 2 1 2 2 2 2 3 3 3 3 3 4 4 1 1 2 1 0 0 1 1 1 1 1 3 5 3 2 2 1 0 1 1 3 2 3 3 2 3 3 4 7 12 12 9 8 7 7 7 7 6 2 7 9 6
19 20 19 20 20 19 19 19 20 21 17 10 5 4 4 2 0 1 0 1 1 1 1 1 1 1 1 1 2 2 2 2 2 2 1 0 1 1 4 4 1 2 5 6 3 2 3 2 1 2 2 1 1 0 1 1 2 4 3 2 3 3 1 1 1 4 4 1 4 4 4 6 6 3 8 10 8 6 6 5 6 6 4 2 7 7 6
18 19 18 18 19 19 17 17 18 18 18 13 5 3 5 3 0 1 0 0 1 1 1 1 1 1 1 1 2 2 2 2 2 3 1 0 1 1 3 3 0 1 3 4 1 2 4 3 2 1 2 2 1 0 1 0 1 2 2 1 1 2 1 0 1 3 3 1 3 3 3 5 6 1 4 6 6 4 2 3 4 5 4 1 1 1 5
17 18 18 16 17 18 16 16 16 16 16 15 7 3 5 3 0 1 1 1 1 0 1 0 1 2 1 2 1 1 3 2 1 2 2 0 2 2 1 2 1 1 1 2 1 0 1 1 1 2 2 3 3 3 3 3 2 2 1 1 1 1 1 1 0 2 2 2 3 0 2 2 1 1 2 4 7 6 4 3 3 3 2 1 1 2 7
17 17 17 15 16 16 15 14 14 14 13 12 9 6 6 4 1 1 1 1 1 0 1 0 0 1 2 3 2 2 3 2 1 1 3 2 1 1 1 1 2 1 1 2 2 3 3 2 2 2 3 4 3 4 6 6 4 2 1 2 2 1 1 1 0 1 1 1 0 4 5 2 1 1 1 3 8 8 6 4 2 4 2 2 3 7 10
17 16 15 14 14 15 14 13 12 12 10 8 7 9 9 5 1 0 1 1 1 0 1 1 1 1 3 5 4 3 2 1 2 1 2 2 1 1 1 0 1 2 1 2 4 3 3 1 1 0 2 4 2 3 6 7 5 4 3 3 3 2 1 1 0 1 0 2 3 4 2 2 1 1 1 1 2 4 4 3 3 5 3 1 6 10 10
17 15 15 13 13 14 14 12 11 11 9 6 5 8 11 7 2 0 1 0 0 0 1 1 1 3 4 4 4 4 3 2 2 2 1 1 0 1 1 0 2 2 0 1 3 2 1 1 1 2 1 2 0 0 2 3 3 4 5 4 3 2 0 0 0 0 0 1 2 1 0 1 1 1 2 3 3 2 1 1 2 2 1 4 10 11 10
16 15 14 13 12 13 14 12 10 10 8 5 3 6 11 10 5 1 0 0 1 1 1 1 2 4 4 2 2 4 3 1 1 1 1 1 1 0 1 1 1 0 2 1 1 1 1 1 1 2 1 1 1 1 1 1 1 2 3 3 3 2 2 1 1 1 0 1 2 2 3 3 2 2 4 5 6 5 3 2 1 1 3 8 13 12 10
16 15 14 13 12 12 13 12 10 9 8 5 2 4 8 11 8 2 1 0 1 1 1 1 2 3 3 2 1 2 2 2 2 1 0 0 1 1 0 0 0 1 2 2 2 1 1 1 1 1 1 0 0 0 1 2 1 2 1 1 2 3 3 0 1 1 1 2 2 2 2 2 2 4 6 7 7 5 3 2 0 3 6 10 14 14 12
16 16 15 14 13 12 12 13 11 9 9 6 2 3 5 10 11 5 1 0 0 0 1 2 3 2 2 2 1 1 2 2 1 1 1 1 0 2 2 1 1 1 1 2 1 1 2 2 1 1 1 1 1 1 0 1 2 1 1 2 3 3 2 1 0 1 1 1 1 1 0 2 3 7 9 9 6 2 2 3 1 3 8 10 13 15 14
14 15 16 15 14 12 12 13 11 9 9 7 4 4 3 8 11 7 1 1 1 0 1 3 3 1 1 2 2 2 2 2 1 1 1 1 0 1 2 2 1 1 1 1 0 1 2 1 1 1 1 1 1 1 0 0 1 1 1 2 1 2 2 1 1 1 1 1 1 1 1 2 4 8 10 9 4 2 3 1 2 1 7 10 13 15 16
13 13 15 16 14 12 11 12 12 9 8 7 6 4 3 5 10 9 3 0 0 1 1 3 3 1 1 2 2 2 1 1 1 2 1 1 1 0 1 1 0 1 1 1 1 1 1 1 0 0 1 1 0 0 0 0 1 1 1 1 0 1 1 1 1 1 1 1 0 1 2 2 5 10 9 6 3 2 1 3 2 4 7 8 10 13 15
13 11 12 15 14 12 10 12 12 10 8 7 7 5 4 5 9 10 4 0 1 1 0 2 2 1 2 2 1 2 2 0 1 1 1 1 1 1 1 1 1 0 1 1 1 0 0 1 1 1 0 1 1 1 1 0 0 0 1 1 1 1 1 0 0 0 0 0 0 1 2 3 5 9 6 2 3 3 3 5 4 2 5 5 5 8 11
13 11 12 14 14 12 10 11 12 10 8 7 8 6 3 4 8 10 5 1 1 0 0 1 2 2 2 3 3 2 1 1 1 2 1 1 1 1 1 1 1 1 0 1 1 1 0 1 1 0 0 1 0 1 1 1 1 1 1 1 0 1 1 1 0 1 1 1 1 2 2 3 5 6 3 3 4 4 4 5 5 2 3 4 3 4 5
11 11 12 14 15 13 10 10 12 11 8 7 7 5 2 4 8 9 5 2 3 3 3 4 5 5 4 2 3 3 2 1 1 2 3 2 1 1 0 1 1 1 1 1 1 1 1 1 1 1 1 1 1 0 0 1 1 2 1 1 0 0 1 2 1 1 1 2 2 2 3 4 4 2 2 3 5 4 4 4 4 2 1 3 4 4 4
10 10 11 13 14 13 9 8 11 11 8 6 6 4 3 5 8 8 3 1 2 4 5 5 5 3 0 2 2 1 2 3 1 1 2 2 1 0 0 1 1 1 1 1 0 1 1 2 1 0 1 1 1 1 1 1 1 1 1 1 0 1 0 0 1 1 1 1 1 2 3 4 5 3 1 2 5 4 3 3 2 2 1 2 4 6 6
9 9 10 12 14 12 8 7 10 10 8 6 5 3 3 5 8 7 3 0 1 1 2 2 1 0 0 2 3 2 2 2 1 1 1 1 1 1 1 1 2 1 1 1 0 1 2 1 1 1 1 1 1 2 1 1 1 1 1 1 1 1 2 1 0 1 1 1 1 2 2 4 6 4 1 1 5 6 4 3 3 3 2 2 6 8 9
8 9 9 11 14 12 7 6 9 10 7 6 4 3 2 4 7 7 3 1 1 1 1 0 1 2 3 2 1 2 1 2 1 1 1 1 2 2 2 4 2 1 2 2 1 1 2 2 1 1 1 1 1 1 1 1 1 1 2 1 1 2 2 1 0 0 1 1 1 1 1 2 4 5 3 3 5 6 6 5 4 4 3 4 6 9 10
9 8 8 10 13 12 7 6 8 9 7 5 3 1 1 3 5 5 3 1 1 0 0 1 1 3 5 3 2 4 3 4 3 2 2 1 0 3 8 8 4 3 4 2 1 1 2 2 1 1 1 1 1 1 1 1 1 0 1 1 1 0 2 1 0 1 2 1 1 2 2 0 4 6 6 5 5 5 6 7 7 6 6 5 6 7 10
9 8 8 10 11 10 7 6 8 8 6 4 3 2 1 1 3 4 4 2 0 1 1 2 1 3 5 3 6 7 3 5 5 5 5 4 4 8 12 9 4 3 3 1 1 2 1 1 1 0 1 1 1 1 1 1 1 1 2 1 1 2 2 2 1 3 3 0 1 1 2 1 4 5 6 6 6 5 7 8 8 7 6 5 6 7 9
10 9 9 10 10 8 6 6 8 7 6 4 3 3 2 1 1 2 3 4 2 0 0 1 0 2 2 3 7 9 2 5 7 7 8 7 9 12 12 7 3 2 2 1 1 2 1 1 1 1 1 2 2 1 1 1 1 2 2 2 2 2 2 2 2 2 0 1 2 1 0 1 3 2 4 5 5 6 8 8 7 7 6 5 5 5 4
11 10 10 9 9 7 6 7 7 7 5 2 2 2 2 2 2 1 2 3 2 1 0 1 1 1 1 2 6 9 4 5 9 10 9 10 10 10 8 5 2 2 2 2 1 1 1 1 0 1 1 0 1 1 1 2 2 2 1 2 2 1 1 1 1 0 2 2 2 2 0 2 2 1 3 4 4 5 5 6 6 6 5 5 5 4 3
11 11 9 8 7 6 6 7 7 6 3 4 4 2 0 2 3 3 0 2 1 0 0 1 2 0 2 2 4 7 7 6 9 10 10 9 7 6 6 5 3 2 1 1 1 1 1 1 1 0 1 1 1 1 1 1 2 1 1 2 2 1 2 2 1 0 1 2 2 2 1 2 2 1 2 4 5 5 4 4 5 5 5 5 4 3 4
11 10 9 8 7 6 6 6 7 5 4 6 5 1 1 1 3 4 2 2 1 1 0 0 1 0 1 1 2 5 6 5 8 10 9 7 6 5 5 4 2 1 1 1 1 0 1 1 1 2 1 1 1 1 1 1 2 1 1 3 3 2 2 2 1 1 1 2 4 3 2 2 2 1 1 3 5 5 3 4 5 5 6 6 5 4 3
9 8 8 8 7 6 5 6 7 5 6 8 7 2 1 0 2 3 2 1 1 1 0 0 1 1 1 1 2 4 4 3 4 5 4 3 3 3 4 4 2 2 2 2 1 1 1 1 1 2 1 1 1 1 1 2 4 2 3 4 3 2 2 2 1 1 2 2 3 3 3 2 2 1 2 2 3 3 3 4 5 5 5 4 3 3 3
9 8 7 6 6 5 5 6 6 4 6 8 7 5 2 1 2 2 2 1 2 1 1 0 1 1 0 0 1 2 2 1 2 2 2 2 1 0 2 3 1 2 2 1 1 1 1 0 1 2 1 0 0 1 2 4 4 2 2 3 3 2 2 2 2 2 2 1 2 2 2 1 2 2 2 2 1 2 2 3 3 4 4 4 3 3 3
9 7 6 5 5 4 5 5 4 4 4 4 4 3 3 3 3 3 2 1 2 2 2 1 1 1 1 0 1 1 1 0 1 1 1 2 2 0 1 1 1 1 1 1 1 1 1 0 1 2 1 1 0 2 3 4 3 2 2 2 2 2 2 2 2 2 2 1 1 0 1 2 2 2 1 2 2 1 1 1 2 2 3 3 4 5 5
7 6 5 4 4 4 4 3 4 4 3 3 4 5 5 4 4 3 2 1 0 0 0 1 1 1 1 1 2 1 2 1 0 0 1 1 2 1 1 1 0 0 1 1 0 1 1 1 1 2 2 1 2 4 4 3 4 4 4 4 4 4 4 4 5 4 3 2 2 2 2 2 2 2 1 1 2 2 1 2 2 1 2 2 2 3 5
6 6 5 3 3 3 2 2 4 4 2 3 6 7 6 5 4 3 2 2 1 1 1 0 0 1 2 2 2 1 1 1 1 1 1 1 1 1 1 1 1 0 1 0 1 1 1 1 1 2 2 2 4 4 3 3 5 5 5 6 7 6 5 4 5 5 4 3 2 3 3 2 2 2 1 0 1 2 2 2 2 2 2 3 2 2 2
6 5 3 1 1 1 1 2 3 4 4 7 9 8 5 4 3 2 2 2 2 3 1 1 1 1 1 1 1 1 1 1 1 1 1 1 1 1 1 0 1 1 0 1 1 1 1 1 1 2 3 3 3 3 3 4 4 4 4 5 6 6 4 2 4 6 6 4 3 3 2 2 3 2 1 1 1 1 2 2 2 2 3 4 4 3 3
6 4 2 1 2 2 1 1 4 8 10 10 9 5 2 2 1 1 1 1 2 2 1 1 1 1 1 1 1 1 1 1 1 1 1 1 1 1 1 0 1 1 1 1 1 1 1 1 1 2 4 3 3 3 5 5 4 2 2 3 5 6 5 4 5 7 6 4 4 4 4 3 3 3 3 3 3 3 3 3 3 3 4 5 6 6 5
4 3 2 2 2 1 2 6 10 12 10 7 3 1 1 1 0 1 1 1 1 0 1 1 2 2 2 2 2 1 0 1 2 2 1 1 1 1 1 1 1 1 2 1 1 1 2 1 1 2 3 3 3 3 3 4 3 2 2 2 3 4 5 5 6 7 6 4 3 4 4 4 3 3 3 3 3 4 4 4 5 5 6 6 7 7 7
4 3 2 1 1 3 7 12 12 9 5 2 1 0 0 0 1 1 1 0 1 2 1 1 1 2 2 2 2 2 1 1 1 2 2 2 0 0 1 1 1 1 2 1 1 1 2 1 1 1 3 3 2 0 1 1 3 3 2 2 3 4 5 5 5 4 3 2 2 2 3 4 5 5 5 5 5 5 5 6 7 7 7 7 8 8 8
5 3 2 2 5 8 11 11 7 3 2 1 1 1 0 1 1 1 1 1 2 2 2 2 2 2 2 2 2 2 1 0 1 0 2 2 0 1 2 2 1 2 2 1 2 1 2 1 1 2 3 2 1 1 1 2 3 3 3 2 3 4 5 4 4 3 3 3 3 3 4 5 5 6 7 7 7 7 8 8 9 9 9 10 10 10 9
6 5 5 7 8 9 8 5 2 1 1 1 1 0 1 1 1 2 2 2 1 1 2 2 2 2 3 3 2 1 1 1 0 0 1 2 1 0 1 2 1 2 2 1 2 2 2 1 2 4 3 1 1 2 2 3 3 4 4 4 5 5 4 4 4 3 2 2 3 3 4 5 6 7 8 8 9 9 10 11 11 12 12 12 12 11 11
7 7 7 6 5 3 2 1 1 1 1 1 1 1 2 1 1 2 2 1 1 1 2 2 1 2 2 2 1 1 1 1 0 0 1 1 1 1 1 1 1 1 1 1 2 2 2 3 4 3 1 1 2 3 3 3 4 5 5 5 5 4 4 3 2 0 1 2 4 5 6 7 8 9 9 9 9 10 11 12 12 13 13 13 11 11 11
7 4 3 2 1 0 0 0 0 1 1 1 1 2 2 2 2 2 1 1 2 2 2 3 3 3 3 2 1 1 1 1 0 1 1 1 1 1 1 1 1 1 1 1 2 2 2 3 4 2 1 1 3 4 4 3 4 5 5 4 4 3 3 2 1 2 3 4 5 6 7 8 9 10 10 10 11 11 12 12 13 14 14 13 11 10 10
4 1 1 2 1 1 0 0 1 0 2 2 2 3 2 2 2 3 2 1 1 2 3 3 3 4 4 2 1 1 1 1 1 1 1 1 1 1 1 1 1 1 1 2 2 1 2 4 4 2 2 4 4 5 4 4 4 4 4 3 3 2 2 1 2 3 4 5 6 7 8 9 10 10 11 11 11 12 12 12 13 13 13 12 11 10 9
1 0 2 2 0 1 1 1 0 1 2 2 3 3 3 2 1 1 1 0 1 2 3 3 4 4 4 2 1 1 1 1 2 1 1 1 2 1 0 1 1 2 2 2 2 3 5 5 3 1 3 5 6 6 5 4 3 3 3 2 1 1 1 2 4 5 6 7 8 9 9 10 11 11 11 11 11 12 12 13 13 13 13 12 11 9 8
0 0 1 2 1 1 1 2 2 2 1 2 2 3 2 1 1 1 1 1 1 2 3 3 2 2 2 1 1 1 1 1 2 2 1 1 1 1 1 1 2 2 2 3 4 4 4 3 1 2 5 7 7 6 5 4 3 3 2 2 1 1 1 3 4 5 7 8 9 10 10 10 11 11 11 11 11 12 12 13 13 13 12 11 10 9 8
1 1 1 1 2 2 2 2 1 1 1 2 1 1 1 1 1 1 1 1 1 3 5 4 3 2 2 1 1 1 1 1 2 2 1 1 1 1 1 2 3 2 2 4 5 4 3 1 1 4 6 7 7 6 5 4 4 3 2 2 1 1 2 4 5 7 8 9 10 10 10 11 11 11 11 11 12 12 13 13 13 11 11 10 10 9 9
1 1 1 1 1 1 1 0 0 2 2 1 1 1 2 2 2 2 2 2 2 2 3 2 2 2 2 1 1 1 1 1 1 2 1 2 2 2 1 2 3 3 3 4 4 3 1 1 4 6 7 7 6 5 5 4 4 3 2 2 1 1 3 5 7 8 9 10 10 10 10 10 10 10 11 11 12 12 12 12 10 9 8 8 8 9 10
0 0 1 1 1 1 1 1 1 2 1 1 1 2 2 2 2 1 2 3 3 3 2 1 1 2 1 1 1 1 2 1 2 2 2 3 3 2 2 3 4 3 3 3 2 1 2 3 5 6 7 6 6 5 5 4 4 3 3 2 1 3 4 5 7 8 8 9 9 9 9 9 9 10 10 10 10 10 9 8 6 5 5 5 7 8 10
0 0 1 2 2 1 1 1 1 2 1 1 1 1 1 1 1 1 2 3 3 4 3 2 1 2 2 1 1 1 1 1 2 2 3 3 2 2 3 4 5 4 2 1 1 1 3 4 5 6 6 6 6 5 5 5 5 4 3 3 3 3 3 4 6 7 8 8 8 8 8 8 8 9 8 8 7 6 4 3 2 2 4 6 7 8 10
0 0 0 1 1 1 1 1 1 1 2 2 1 1 1 1 1 1 2 4 4 4 3 2 1 2 2 2 1 1 1 2 2 2 2 2 3 3 4 4 3 2 1 1 2 3 3 4 5 6 6 7 7 6 6 6 5 5 4 4 3 2 2 4 5 6 7 7 6 7 7 7 7 6 6 5 4 2 1 0 1 4 6 7 7 9 13
Wind_Direction
359 1 1 0 0 360 359 360 358 355 356 0 359 357 16 53 97 21 5 348 204 0 50 150 20 54 1 9 238 308 358 11 354 3 12 14 20 49 49 35 51 44 26 109 62 40 48 34 31 46 47 61 277 311 333 305 224 336 352 64 333 263 191 335 311 305 280 213 110 109 123 127 86 44 24 0 309 288 260 260 178 181 186 160 201 226 146
358 0 1 1 1 1 0 0 360 357 358 1 1 4 121 28 222 326 9 34 202 280 42 102 21 18 333 50 63 18 38 31 9 16 20 14 9 31 55 33 21 39 38 67 55 5 25 74 31 26 106 53 329 312 333 338 349 26 356 317 290 260 325 323 320 138 178 156 126 123 74 43 46 23 8 358 346 317 231 84 171 202 187 181 216 223 131
356 360 1 1 1 1 1 1 0 358 357 0 5 35 174 357 176 268 359 33 80 74 59 124 116 66 40 63 48 22 66 41 4 26 27 20 12 18 57 18 0 46 79 81 60 16 27 77 23 1 85 335 322 338 340 341 0 16 333 302 296 297 59 274 229 121 127 102 73 43 354 8 23 7 2 4 3 336 228 150 193 212 172 173 224 223 121
356 360 0 0 1 1 2 2 0 359 357 358 6 53 191 326 143 275 347 36 54 68 47 14 125 134 103 91 47 15 72 32 310 87 49 21 23 40 32 337 312 68 72 86 62 23 20 58 86 77 1 312 322 332 329 336 346 345 357 11 310 173 97 20 277 131 128 126 87 356 317 352 26 8 4 5 5 351 260 220 206 183 153 184 225 131 142
356 359 359 0 1 360 2 3 1 359 357 356 2 46 47 17 124 33 1 60 46 86 72 21 75 151 167 136 65 6 1 308 339 56 61 30 29 62 49 18 13 78 62 97 76 20 14 37 48 44 327 300 296 297 298 339 338 334 347 8 347 164 79 9 342 92 133 151 160 300 331 54 46 15 10 10 8 7 269 253 298 126 178 202 178 151 162
356 358 359 1 0 359 2 4 3 1 357 357 5 46 30 26 133 51 322 250 94 84 26 18 63 109 126 136 100 17 38 52 37 23 58 46 11 26 60 26 18 355 246 113 86 4 28 46 15 354 343 327 325 315 310 353 342 340 359 10 14 114 56 0 338 333 56 155 176 242 327 86 66 28 21 17 13 17 9 334 345 331 270 262 161 168 175
356 357 359 0 0 359 0 4 6 5 1 6 24 50 26 35 106 122 336 319 141 37 336 3 95 91 70 85 88 93 80 83 79 333 17 44 8 15 69 21 10 14 24 102 96 341 87 78 20 322 1 355 0 4 1 5 358 5 26 24 20 167 64 2 313 254 327 343 257 229 247 155 45 30 24 21 25 32 28 11 2 342 315 314 167 161 143
357 356 358 0 1 359 0 4 9 9 9 20 38 44 21 28 69 31 26 78 80 22 345 128 122 71 25 88 88 74 88 108 134 1 22 59 10 27 99 72 16 32 56 85 104 128 162 97 61 208 220 11 44 5 312 346 11 11 23 18 346 325 67 24 332 218 228 342 335 258 252 293 329 20 25 19 22 31 28 17 6 351 331 295 159 145 121
356 355 357 0 1 0 0 4 10 14 19 31 50 35 15 7 308 322 148 107 5 354 38 57 136 113 51 140 150 156 163 152 131 89 20 42 47 66 122 126 59 26 57 77 100 176 200 204 295 237 233 287 299 346 310 262 334 3 19 356 347 0 20 104 143 206 207 3 346 302 301 306 299 358 38 28 21 27 26 22 11 351 334 170 155 151 145
354 353 356 359 2 2 0 4 10 14 24 38 56 18 1 0 168 331 260 154 0 351 98 53 160 165 113 145 164 163 164 172 133 105 83 297 39 64 164 156 116 30 72 70 47 228 222 247 303 253 248 283 268 302 64 196 301 347 17 356 0 10 341 177 186 215 191 75 350 334 358 316 285 245 80 57 47 45 31 31 28 4 339 247 191 128 144
351 351 353 357 2 3 0 4 9 12 25 39 50 21 355 351 331 337 288 158 62 102 166 95 148 144 139 157 151 121 148 173 214 144 145 163 33 52 162 156 103 111 104 51 18 155 200 251 92 99 54 51 99 129 108 87 49 352 333 354 53 43 347 21 283 239 171 49 352 16 158 246 264 130 125 106 92 81 66 53 22 6 357 277 308 89 138
345 347 351 356 1 3 2 3 8 12 23 36 43 34 11 346 283 307 301 147 105 162 156 95 261 154 151 152 124 109 154 178 250 182 148 134 109 85 92 104 91 82 23 40 77 119 123 98 95 99 37 34 80 102 75 58 45 32 6 356 15 19 14 71 332 290 125 75 36 186 194 226 79 142 218 110 103 101 98 96 46 19 9 244 180 148 146
338 341 347 353 358 2 2 1 4 9 16 27 35 32 18 0 318 24 337 136 130 203 139 77 317 172 134 127 111 101 120 106 53 68 96 100 136 177 199 188 32 7 0 62 74 103 130 91 28 217 358 2 38 78 50 32 18 27 37 21 12 21 47 118 64 346 96 165 185 191 221 339 29 157 267 15 83 106 113 115 68 31 349 242 150 142 137
335 339 345 351 356 360 1 359 359 1 7 16 24 27 23 12 354 229 322 163 116 288 207 141 140 131 118 111 114 114 107 85 63 56 58 68 126 143 145 253 325 336 179 114 60 63 126 118 136 191 262 347 302 102 28 17 12 24 31 26 19 35 60 243 256 37 341 209 199 203 228 119 106 67 10 331 319 350 9 355 66 38 304 145 128 124 117
335 340 346 348 352 357 359 358 355 355 0 7 2 15 23 17 1 267 222 303 141 156 209 194 157 139 129 124 138 129 116 101 88 70 26 299 273 199 113 17 335 115 137 116 42 50 110 127 152 171 185 192 190 243 328 344 19 46 39 26 30 48 36 323 254 132 349 263 213 217 215 161 114 11 348 335 318 305 287 282 79 125 182 143 128 121 118
333 339 348 348 347 353 357 355 352 352 355 357 333 347 15 18 9 348 215 321 154 155 188 215 169 138 126 112 124 137 133 147 156 141 124 346 339 279 250 60 64 128 103 81 56 66 88 103 138 146 133 126 203 256 328 332 350 110 96 32 43 59 62 55 227 114 141 229 210 214 229 114 64 333 322 330 327 314 282 278 253 169 174 149 133 132 135
329 333 342 345 344 347 354 354 351 348 349 349 331 329 5 15 9 355 263 275 328 124 119 149 146 132 128 129 122 127 124 124 136 151 154 149 319 307 310 11 66 74 70 67 57 67 76 87 114 130 119 111 302 299 3 340 352 55 35 4 19 26 28 33 24 82 110 222 210 179 5 52 7 322 318 325 331 323 238 265 14 148 174 160 143 143 143
326 326 332 338 340 340 347 352 348 345 346 340 321 308 335 7 8 2 337 231 323 51 166 181 180 162 127 132 126 131 131 114 116 120 106 107 14 320 327 348 64 59 34 23 67 77 80 88 98 107 116 122 295 300 139 321 354 25 0 344 6 358 357 14 48 84 50 297 184 138 71 22 337 318 320 320 304 229 215 276 35 182 196 172 154 154 151
326 324 324 330 336 335 340 348 347 342 341 335 325 310 297 347 2 2 0 196 346 38 149 196 213 206 131 97 89 110 120 62 85 122 140 154 132 26 335 294 243 4 28 76 101 70 79 109 94 263 154 130 178 285 95 36 23 46 337 294 313 323 326 7 20 37 16 333 14 96 113 77 338 318 316 315 285 239 307 345 329 240 218 186 165 163 162
325 328 324 328 334 333 335 344 345 341 337 333 331 320 284 308 343 349 348 256 255 328 168 201 235 212 170 156 116 127 139 126 121 141 155 143 128 175 206 189 156 55 52 116 125 115 170 130 119 227 194 100 116 179 129 130 166 346 303 297 356 346 325 5 98 40 3 221 21 38 115 89 357 331 325 354 1 345 331 324 317 263 209 198 179 164 167
318 325 323 326 332 331 332 340 343 340 336 331 332 330 305 310 333 337 327 246 199 302 112 212 277 271 241 250 267 246 176 128 136 152 136 94 52 255 224 144 124 142 116 80 106 119 242 116 120 179 94 77 112 212 141 157 156 136 292 279 222 249 291 335 112 217 299 350 63 46 9 356 353 345 347 7 349 328 306 306 315 317 177 183 175 143 152
309 318 316 319 327 329 327 336 340 338 335 331 328 329 328 331 338 339 327 238 228 261 283 298 300 295 286 281 278 265 241 192 156 152 140 122 56 310 154 136 172 176 133 111 126 118 132 145 143 156 136 126 157 143 80 268 193 129 185 250 228 281 310 332 328 210 299 335 4 9 328 317 331 334 307 323 328 318 299 286 286 301 150 163 158 130 119
301 312 309 309 320 326 322 330 338 336 333 333 327 321 325 337 345 350 347 254 260 263 272 295 302 294 42 69 28 335 206 198 205 171 153 135 119 159 211 179 162 125 136 215 232 115 146 153 123 130 165 147 148 149 166 252 268 98 148 196 3 8 249 256 302 280 251 268 312 337 326 331 343 342 260 307 337 345 340 325 324 346 13 141 140 127 116
294 304 300 298 312 322 319 322 333 334 331 330 326 325 333 344 353 360 2 313 331 249 261 302 306 194 261 323 343 22 107 147 136 130 187 180 159 209 259 197 173 157 162 192 58 91 125 115 84 237 216 154 167 202 216 230 226 173 168 180 154 163 184 202 301 306 275 235 67 24 354 345 348 350 21 27 6 7 11 13 15 6 0 91 114 119 115
285 295 296 295 307 319 317 313 326 332 331 326 320 327 349 357 2 8 19 21 28 151 207 199 114 23 351 324 343 28 76 191 172 147 185 204 226 235 156 137 142 109 120 145 152 124 114 100 116 203 203 173 206 232 237 231 197 180 207 219 126 153 197 236 302 191 288 331 63 49 325 344 3 2 16 25 15 21 29 29 32 40 50 77 103 119 123
273 287 294 290 299 309 309 305 318 327 328 321 305 297 36 23 12 16 30 44 59 94 163 183 176 5 12 48 42 353 289 227 208 180 160 121 54 150 136 128 108 77 93 106 87 88 91 91 126 183 171 183 222 218 141 156 121 147 235 232 66 137 215 207 73 237 261 275 160 201 242 2 47 32 24 13 358 14 40 40 38 50 62 74 92 112 125
260 273 285 285 292 302 299 293 310 324 325 309 278 232 189 26 16 24 32 29 331 227 227 184 189 355 2 13 3 350 296 215 206 188 159 119 114 135 135 128 107 94 100 84 67 93 94 95 120 142 87 126 164 142 97 104 129 200 242 183 151 234 220 162 202 250 254 267 105 218 252 87 62 36 26 16 358 10 45 49 44 49 56 70 92 108 125
254 266 283 288 293 299 290 284 303 319 318 291 253 220 211 258 342 17 27 23 20 14 211 192 298 344 338 353 1 359 342 192 187 171 147 130 137 142 134 120 107 120 113 73 99 119 109 93 124 113 110 144 177 154 122 150 192 229 236 178 174 230 217 171 212 251 297 67 99 139 303 84 88 42 21 21 9 18 41 45 43 52 62 75 92 101 122
253 268 282 286 289 292 282 279 298 315 309 253 194 190 211 242 266 294 29 30 29 54 341 255 227 290 297 348 4 10 32 147 162 155 137 124 128 130 117 99 92 103 91 82 109 122 100 87 119 99 88 189 221 167 152 204 227 233 189 152 162 255 238 218 239 130 93 105 144 161 130 80 98 46 17 23 11 17 41 41 31 38 53 68 84 101 131
260 275 280 280 285 285 272 274 295 308 280 185 161 140 178 229 235 229 208 13 358 2 324 207 178 159 344 346 7 20 41 100 126 121 108 101 99 94 92 93 83 67 86 94 79 109 127 119 124 126 26 354 251 191 183 218 239 260 148 163 188 215 207 224 257 154 112 113 141 161 148 84 91 68 43 35 18 18 37 37 24 16 10 16 38 76 114
268 275 273 271 274 271 262 274 294 296 227 178 162 120 44 179 209 215 234 316 338 166 154 256 186 14 10 47 27 18 31 80 100 92 84 80 77 71 75 81 68 19 64 94 69 102 146 124 122 143 109 23 338 193 164 213 238 243 162 169 183 183 172 180 214 226 174 121 134 151 144 115 136 164 98 44 19 17 22 17 15 11 1 357 355 356 34
273 272 269 262 258 254 259 277 291 277 211 191 189 199 339 94 175 198 220 317 22 149 171 98 149 156 132 107 9 2 13 65 86 80 69 62 67 66 56 56 59 48 60 93 131 114 96 99 124 134 124 15 351 141 165 230 244 226 162 170 180 174 176 177 159 165 173 158 164 184 187 164 160 141 89 54 22 19 16 2 359 2 4 6 354 332 332
278 274 271 252 238 243 263 280 284 259 211 205 215 232 251 215 151 165 171 96 79 100 93 73 143 139 109 14 350 0 5 49 75 72 56 32 15 58 59 53 69 62 44 53 145 101 70 148 141 122 125 324 5 168 214 236 235 203 164 179 182 171 180 186 159 145 146 154 201 242 243 154 116 91 109 123 94 41 25 9 357 355 358 359 353 343 333
272 268 262 237 226 246 272 278 261 222 193 191 200 201 187 157 132 129 132 111 95 91 62 47 145 112 47 228 190 40 18 76 163 136 92 41 3 292 120 71 44 56 33 23 92 124 139 171 147 150 151 116 143 237 248 239 212 181 178 197 196 170 164 183 188 175 150 130 145 106 69 100 118 122 130 122 97 76 78 55 16 355 353 346 335 337 336
261 250 246 238 243 265 278 263 217 183 161 146 147 149 146 135 119 111 111 95 94 143 64 26 154 147 126 182 178 114 38 68 119 35 87 75 24 9 110 122 112 5 37 22 64 167 156 141 171 182 157 133 208 229 240 233 203 187 192 197 188 173 178 197 201 183 152 139 149 125 110 135 158 147 116 63 40 27 37 55 47 18 346 325 316 329 332
240 229 232 242 257 267 261 213 182 163 135 136 145 141 133 125 113 102 105 99 70 107 148 128 228 185 176 176 165 116 59 116 105 33 66 136 97 44 69 160 184 98 24 338 211 180 133 132 215 196 164 198 227 224 220 218 202 191 197 201 192 184 191 200 187 165 147 140 148 142 143 166 162 137 120 124 50 7 345 357 18 5 332 320 312 315 312
222 215 221 236 224 201 164 165 172 160 136 135 139 134 124 122 117 91 93 97 50 36 76 180 214 195 187 184 139 143 183 180 133 97 144 165 138 78 37 213 165 130 178 221 186 128 112 136 240 226 202 217 243 238 212 214 208 192 195 200 192 187 190 171 150 153 152 150 155 158 163 171 164 160 195 207 193 262 308 326 338 326 311 309 304 300 296
209 199 202 204 184 176 151 138 148 142 133 131 134 130 94 86 100 50 48 44 5 19 38 220 213 154 154 186 120 127 187 183 144 145 166 160 144 126 113 124 124 151 239 232 109 108 146 154 223 256 246 252 272 253 226 220 218 201 188 188 183 181 174 153 153 165 174 185 190 183 183 196 204 204 214 228 238 243 253 271 277 271 272 281 286 287 288
194 175 182 192 184 163 135 138 139 136 129 121 125 141 60 51 142 162 96 350 304 70 128 231 214 173 178 183 154 111 276 172 159 169 167 165 190 190 172 165 150 196 244 237 122 166 223 206 184 266 269 265 259 246 223 208 203 194 180 174 171 167 161 163 175 187 196 207 204 188 193 221 243 240 237 244 249 247 244 246 249 251 253 259 268 274 277
177 170 186 193 149 126 137 141 138 133 123 100 49 351 137 139 256 171 125 162 243 198 182 221 189 167 198 201 167 161 204 205 180 172 151 134 139 203 151 146 158 206 241 240 130 167 249 242 175 259 267 246 220 24 44 164 177 167 154 155 151 150 158 172 186 200 215 229 228 216 226 243 255 257 257 261 263 263 259 253 250 251 251 251 256 260 261
178 190 188 151 135 132 135 138 133 117 103 102 44 8 14 185 207 169 156 198 227 212 192 187 167 164 194 211 182 167 166 106 1 124 129 120 116 207 159 132 136 238 243 217 122 160 230 228 204 243 254 236 160 58 73 147 144 124 124 144 143 143 154 161 161 177 212 230 239 246 247 250 255 258 260 262 262 264 266 267 264 261 257 255 257 262 262
182 176 143 125 128 131 132 129 105 67 80 106 88 2 268 251 212 206 211 223 237 200 176 186 182 147 148 157 151 127 144 161 196 286 126 133 147 203 123 109 136 241 235 125 117 171 211 228 240 245 245 218 125 128 145 147 131 115 115 119 118 121 128 132 133 147 189 225 252 264 265 263 261 260 261 263 263 262 263 264 264 264 263 260 259 262 265
161 159 142 124 121 129 129 83 51 74 88 69 83 179 231 246 223 213 220 229 226 176 161 161 136 99 118 137 114 65 88 158 162 53 106 139 144 111 118 134 193 229 147 129 166 193 202 223 237 242 246 112 150 150 138 127 121 114 106 99 98 101 101 99 103 150 243 251 263 272 275 271 268 267 266 265 265 263 263 261 260 262 266 265 261 260 265
148 152 146 121 92 55 112 95 31 145 167 195 205 201 207 210 200 198 198 190 187 177 161 166 174 159 146 148 136 118 130 144 131 107 128 130 129 152 174 187 190 136 129 177 211 213 232 244 242 233 136 147 168 155 140 134 130 123 115 106 100 97 89 73 346 295 284 273 270 271 270 268 268 269 267 262 258 257 259 260 260 262 264 264 262 259 259
154 144 72 65 14 327 102 116 330 267 199 200 205 205 207 201 188 187 182 162 161 151 145 161 171 151 133 133 156 144 137 144 156 159 149 143 162 198 209 162 145 150 189 226 224 220 244 251 245 212 178 175 164 147 138 133 128 127 131 125 104 72 36 353 319 304 296 292 289 284 279 275 272 269 266 263 260 257 256 259 262 262 261 258 254 249 247
173 109 101 105 331 287 231 160 189 233 208 200 198 203 214 217 195 180 152 116 156 155 147 154 154 140 132 144 173 120 127 156 159 143 138 171 180 180 130 132 167 190 217 228 229 234 245 253 253 190 159 155 145 135 130 127 121 120 128 125 101 49 358 324 309 300 295 294 293 290 285 281 277 274 272 270 267 262 258 259 263 264 261 254 246 237 229
162 94 103 116 136 213 206 206 217 224 219 216 214 214 220 241 268 241 203 196 186 142 121 118 123 120 117 133 166 131 118 152 157 146 160 197 170 128 105 219 216 213 214 220 228 236 246 256 259 137 140 140 137 135 134 131 130 128 119 106 78 17 331 309 302 300 302 302 300 295 290 286 282 279 276 274 272 269 267 267 269 267 261 253 242 227 211
172 175 132 136 166 188 198 205 224 242 233 227 227 229 231 254 260 228 177 158 164 148 138 137 139 130 116 120 162 145 123 136 165 164 165 179 154 134 166 222 224 218 213 225 235 241 243 233 136 136 140 140 139 141 140 140 142 138 121 91 44 0 337 329 327 325 320 315 309 302 297 293 288 283 279 277 275 274 275 277 277 271 258 244 230 214 200
154 154 107 120 180 205 197 150 283 267 246 222 217 221 212 221 239 226 158 145 156 152 136 128 138 147 142 110 92 138 174 200 182 159 160 186 195 192 198 214 221 220 216 223 235 243 236 124 127 136 140 140 140 141 143 144 142 128 105 84 47 16 4 354 345 336 326 319 312 304 297 294 291 287 284 282 281 282 287 289 286 275 259 239 216 198 191
14 124 157 183 200 192 154 154 236 252 242 192 186 203 208 219 237 212 164 156 148 131 117 101 102 116 114 92 107 162 203 201 158 158 187 198 197 193 205 218 223 223 219 217 221 204 148 138 140 141 142 144 147 149 147 144 137 124 114 110 79 43 22 1 344 331 324 321 317 310 304 299 296 294 293 290 287 289 296 298 289 268 247 233 216 200 190
325 288 226 229 227 189 151 168 230 248 235 195 183 185 197 247 261 175 149 149 151 153 160 169 116 94 114 156 169 164 170 162 158 183 212 206 180 178 210 227 230 227 220 203 158 141 147 150 150 147 146 149 154 155 147 139 135 130 119 98 74 50 19 351 336 328 326 326 323 319 317 314 308 304 301 295 289 284 287 293 276 209 193 205 209 192 172
196 247 243 247 233 189 177 221 269 261 238 236 239 205 199 228 267 147 154 168 175 171 163 149 115 125 154 178 167 136 148 173 183 196 210 207 193 197 215 229 234 233 218 155 138 145 153 153 150 150 152 154 156 156 151 145 139 127 108 89 79 62 356 342 340 339 340 339 334 328 327 327 319 310 304 299 295 290 288 51 124 143 146 147 153 155 151